QPF
0.00 0.00 0.00 0.00 0.00 0.00 0.00 0.00 0.00 0.00 0.00 0.00 0.00 0.00 0.00 0.00 0.00 0.00 0.00 0.00 0.00 0.00 0.00 0.00 0.00 0.00 0.00 0.00 0.00 0.00 0.00 0.00 0.00 0.00 0.00 0.00 0.00 0.00 0.00 0.00 0.00 0.00 0.00 0.00
0.00 0.00 0.00 0.00 0.00 0.00 0.00 0.00 0.00 0.00 0.00 0.00 0.00 0.00 0.00 0.00 0.00 0.00 0.00 0.00 0.00 0.00 0.00 0.00 0.00 0.00 0.00 0.00 0.00 0.00 0.00 0.00 0.00 0.00 0.00 0.00 0.00 0.00 0.00 0.01 0.02 0.02 0.01 0.01
0.00 0.00 0.00 0.00 0.00 0.00 0.00 0.00 0.00 0.00 0.00 0.00 0.00 0.00 0.00 0.00 0.00 0.00 0.00 0.00 0.00 0.00 0.00 0.00 0.00 0.00 0.00 0.00 0.00 0.00 0.00 0.00 0.00 0.00 0.00 0.00 0.00 0.00 0.00 0.00 0.01 0.00 0.00 0.00
0.00 0.00 0.00 0.00 0.00 0.00 0.00 0.00 0.00 0.00 0.00 0.00 0.00 0.00 0.00 0.00 0.00 0.00 0.00 0.00 0.00 0.00 0.00 0.00 0.00 0.00 0.00 0.00 0.00 0.00 0.00 0.00 0.00 0.00 0.01 0.01 0.01 0.01 0.00 0.00 0.00 0.00 0.00 0.00
0.00 0.00 0.00 0.00 0.00 0.00 0.00 0.00 0.00 0.00 0.00 0.00 0.00 0.00 0.00 0.00 0.00 0.00 0.00 0.00 0.00 0.00 0.00 0.00 0.00 0.00 0.00 0.00 0.00 0.00 0.00 0.00 0.00 0.00 0.00 0.01 0.01 0.00 0.00 0.00 0.00 0.00 0.00 0.00
0.00 0.00 0.00 0.00 0.00 0.00 0.00 0.00 0.00 0.00 0.00 0.00 0.00 0.00 0.00 0.00 0.00 0.00 0.00 0.00 0.00 0.00 0.00 0.00 0.00 0.00 0.00 0.00 0.00 0.00 0.00 0.00 0.00 0.00 0.00 0.01 0.01 0.00 0.00 0.00 0.00 0.00 0.00 0.00
0.00 0.00 0.00 0.00 0.00 0.00 0.00 0.00 0.00 0.00 0.00 0.00 0.00 0.00 0.00 0.00 0.00 0.00 0.00 0.00 0.00 0.00 0.00 0.00 0.00 0.00 0.00 0.00 0.00 0.00 0.00 0.00 0.00 0.00 0.00 0.00 0.00 0.00 0.00 0.00 0.00 0.00 0.00 0.00
0.00 0.00 0.00 0.00 0.00 0.00 0.00 0.00 0.00 0.00 0.00 0.00 0.00 0.00 0.00 0.00 0.00 0.00 0.00 0.00 0.00 0.00 0.00 0.00 0.00 0.00 0.00 0.00 0.00 0.00 0.00 0.00 0.00 0.00 0.00 0.00 0.00 0.00 0.00 0.00 0.00 0.00 0.00 0.00
0.00 0.00 0.00 0.00 0.00 0.00 0.00 0.00 0.00 0.00 0.00 0.00 0.00 0.00 0.00 0.00 0.00 0.00 0.00 0.00 0.00 0.00 0.00 0.00 0.00 0.00 0.00 0.00 0.00 0.00 0.00 0.00 0.00 0.00 0.00 0.00 0.00 0.00 0.00 0.00 0.00 0.00 0.00 0.00
0.00 0.00 0.00 0.00 0.00 0.00 0.00 0.00 0.00 0.00 0.00 0.00 0.00 0.00 0.00 0.00 0.00 0.00 0.00 0.00 0.00 0.00 0.00 0.00 0.00 0.00 0.00 0.00 0.00 0.00 0.00 0.00 0.00 0.00 0.00 0.00 0.00 0.00 0.00 0.00 0.00 0.00 0.00 0.00
0.00 0.00 0.00 0.00 0.00 0.00 0.00 0.00 0.00 0.00 0.00 0.00 0.00 0.00 0.00 0.00 0.00 0.00 0.00 0.00 0.00 0.00 0.00 0.00 0.00 0.00 0.00 0.00 0.00 0.00 0.00 0.00 0.00 0.00 0.00 0.00 0.00 0.00 0.00 0.00 0.00 0.00 0.00 0.00
0.00 0.00 0.00 0.00 0.00 0.00 0.00 0.00 0.00 0.00 0.00 0.00 0.00 0.00 0.00 0.00 0.00 0.00 0.00 0.00 0.00 0.00 0.00 0.00 0.00 0.00 0.00 0.00 0.00 0.00 0.00 0.00 0.00 0.00 0.00 0.00 0.00 0.00 0.00 0.00 0.00 0.00 0.00 0.00
0.00 0.00 0.00 0.00 0.00 0.00 0.00 0.00 0.00 0.00 0.00 0.00 0.00 0.00 0.00 0.00 0.00 0.00 0.00 0.00 0.00 0.00 0.00 0.00 0.00 0.00 0.00 0.00 0.00 0.00 0.00 0.00 0.00 0.00 0.00 0.00 0.00 0.00 0.00 0.00 0.00 0.00 0.00 0.00
0.00 0.00 0.00 0.00 0.00 0.00 0.00 0.00 0.00 0.00 0.00 0.00 0.00 0.00 0.00 0.00 0.00 0.00 0.00 0.00 0.00 0.00 0.00 0.00 0.00 0.00 0.00 0.00 0.00 0.00 0.00 0.00 0.00 0.00 0.00 0.00 0.00 0.00 0.00 0.00 0.00 0.00 0.00 0.00
0.00 0.00 0.00 0.00 0.00 0.00 0.00 0.00 0.00 0.00 0.00 0.00 0.00 0.00 0.00 0.00 0.00 0.00 0.00 0.00 0.00 0.00 0.00 0.00 0.00 0.00 0.00 0.00 0.00 0.00 0.00 0.00 0.00 0.00 0.00 0.00 0.00 0.00 0.00 0.00 0.00 0.00 0.00 0.00
0.00 0.00 0.00 0.00 0.00 0.00 0.00 0.00 0.00 0.00 0.00 0.00 0.00 0.00 0.00 0.00 0.00 0.00 0.00 0.00 0.00 0.00 0.00 0.00 0.00 0.00 0.00 0.00 0.00 0.00 0.00 0.00 0.00 0.00 0.00 0.00 0.00 0.00 0.00 0.00 0.00 0.00 0.00 0.00
0.00 0.00 0.00 0.00 0.00 0.00 0.00 0.00 0.00 0.00 0.00 0.00 0.00 0.00 0.00 0.00 0.00 0.00 0.00 0.00 0.00 0.00 0.00 0.00 0.00 0.00 0.00 0.00 0.00 0.00 0.00 0.00 0.00 0.00 0.00 0.00 0.00 0.00 0.00 0.00 0.00 0.00 0.00 0.00
0.00 0.00 0.00 0.00 0.00 0.00 0.00 0.00 0.00 0.00 0.00 0.00 0.00 0.00 0.00 0.00 0.00 0.00 0.00 0.00 0.00 0.00 0.00 0.00 0.00 0.00 0.00 0.00 0.00 0.00 0.00 0.00 0.00 0.00 0.00 0.00 0.00 0.00 0.00 0.00 0.00 0.00 0.00 0.00
0.00 0.00 0.00 0.00 0.00 0.00 0.00 0.00 0.00 0.00 0.00 0.00 0.00 0.00 0.00 0.00 0.00 0.00 0.00 0.00 0.00 0.00 0.00 0.00 0.00 0.00 0.00 0.00 0.00 0.00 0.00 0.00 0.00 0.00 0.00 0.00 0.00 0.00 0.00 0.00 0.00 0.00 0.00 0.00
0.00 0.00 0.00 0.00 0.00 0.00 0.00 0.00 0.00 0.00 0.00 0.00 0.00 0.00 0.00 0.00 0.00 0.00 0.00 0.00 0.00 0.00 0.00 0.00 0.00 0.00 0.00 0.00 0.00 0.00 0.00 0.00 0.00 0.00 0.00 0.00 0.00 0.00 0.00 0.00 0.00 0.00 0.00 0.00
0.00 0.00 0.00 0.00 0.00 0.00 0.00 0.00 0.00 0.00 0.00 0.00 0.00 0.00 0.00 0.00 0.00 0.00 0.00 0.00 0.00 0.00 0.00 0.00 0.00 0.00 0.00 0.00 0.00 0.00 0.00 0.00 0.00 0.00 0.00 0.00 0.00 0.00 0.00 0.00 0.00 0.00 0.00 0.00
0.00 0.00 0.00 0.00 0.00 0.00 0.00 0.00 0.00 0.00 0.00 0.00 0.00 0.00 0.00 0.00 0.00 0.00 0.00 0.00 0.00 0.00 0.00 0.00 0.00 0.00 0.00 0.00 0.00 0.00 0.00 0.00 0.00 0.00 0.00 0.00 0.00 0.00 0.00 0.00 0.00 0.00 0.00 0.00
0.00 0.00 0.00 0.00 0.00 0.00 0.00 0.00 0.00 0.00 0.00 0.00 0.00 0.00 0.00 0.00 0.00 0.00 0.00 0.00 0.00 0.00 0.00 0.00 0.00 0.00 0.00 0.00 0.00 0.00 0.00 0.00 0.00 0.00 0.00 0.00 0.00 0.00 0.00 0.00 0.00 0.00 0.00 0.00
0.00 0.00 0.00 0.00 0.00 0.00 0.00 0.00 0.00 0.00 0.00 0.00 0.00 0.00 0.00 0.00 0.00 0.00 0.00 0.00 0.00 0.00 0.00 0.00 0.00 0.00 0.00 0.00 0.00 0.00 0.00 0.00 0.00 0.00 0.00 0.00 0.00 0.00 0.00 0.00 0.00 0.00 0.00 0.00
0.00 0.00 0.00 0.00 0.00 0.00 0.00 0.00 0.00 0.00 0.00 0.00 0.00 0.00 0.00 0.00 0.00 0.00 0.00 0.00 0.00 0.00 0.00 0.00 0.00 0.00 0.00 0.00 0.00 0.00 0.00 0.00 0.00 0.00 0.00 0.00 0.00 0.00 0.00 0.00 0.00 0.00 0.00 0.00
0.00 0.00 0.00 0.00 0.00 0.00 0.00 0.00 0.00 0.00 0.00 0.00 0.00 0.00 0.00 0.00 0.00 0.00 0.00 0.00 0.00 0.00 0.00 0.00 0.00 0.00 0.00 0.00 0.00 0.00 0.00 0.00 0.00 0.00 0.00 0.00 0.00 0.00 0.00 0.00 0.00 0.00 0.00 0.00
MSLP
1018.58 1018.98 1018.24 1018.71 1018.87 1018.78 1019.16 1019.91 1019.84 1019.64 1019.55 1019.64 1019.74 1019.35 1019.08 1019.54 1020.05 1020.06 1020.06 1020.20 1020.66 1020.67 1020.57 1020.78 1020.99 1021.17 1021.57 1022.18 1022.59 1022.91 1023.39 1023.48 1024.16 1024.84 1025.13 1025.43 1025.56 1025.79 1025.85 1025.98 1026.15 1026.39 1026.60 1026.69
1019.09 1018.74 1018.65 1018.90 1019.10 1019.31 1019.57 1019.83 1020.14 1020.08 1019.95 1019.91 1019.57 1019.39 1018.83 1019.19 1019.12 1019.03 1019.05 1019.78 1020.00 1020.28 1020.45 1020.38 1020.52 1020.75 1021.00 1021.25 1021.76 1022.42 1022.75 1023.07 1023.40 1023.99 1024.28 1024.37 1024.63 1025.14 1025.24 1025.48 1025.73 1025.88 1026.17 1026.48
1018.22 1018.50 1018.63 1018.73 1019.17 1019.50 1019.85 1019.96 1020.14 1020.55 1020.43 1020.17 1020.08 1019.41 1018.58 1018.27 1018.65 1018.44 1018.53 1018.64 1019.40 1019.34 1019.58 1020.01 1020.24 1019.98 1020.32 1020.60 1020.88 1021.50 1021.90 1022.26 1022.67 1023.00 1023.75 1024.24 1024.48 1024.79 1025.17 1025.38 1025.57 1025.94 1025.96 1026.16
1018.40 1018.15 1018.30 1018.81 1019.30 1019.51 1020.10 1020.56 1020.74 1020.94 1021.11 1021.22 1020.69 1019.35 1017.60 1017.86 1017.90 1017.87 1017.46 1018.06 1018.15 1018.55 1018.85 1019.06 1019.43 1019.63 1019.57 1019.58 1020.24 1020.63 1021.11 1021.60 1021.82 1022.15 1023.06 1023.49 1023.71 1024.03 1024.26 1024.70 1025.41 1025.87 1026.06 1026.31
1018.16 1018.29 1018.55 1018.85 1018.96 1019.93 1020.65 1020.50 1021.21 1021.74 1022.05 1022.07 1021.02 1020.58 1017.21 1017.24 1017.00 1016.95 1016.87 1016.81 1016.90 1017.27 1017.55 1017.92 1018.18 1018.52 1018.92 1019.18 1019.68 1020.08 1020.56 1020.91 1021.25 1021.61 1022.06 1022.59 1023.21 1023.53 1024.08 1024.77 1025.60 1026.20 1026.50 1026.67
1018.46 1018.61 1018.49 1018.47 1019.10 1019.60 1020.66 1021.49 1022.34 1023.18 1023.15 1022.89 1020.53 1020.09 1016.82 1016.21 1015.55 1015.82 1016.09 1015.90 1015.47 1016.02 1016.57 1017.50 1017.66 1018.27 1018.60 1018.94 1019.28 1019.85 1020.20 1020.29 1020.71 1021.13 1021.45 1021.86 1022.37 1023.16 1024.19 1024.86 1025.64 1026.29 1026.63 1027.12
1018.67 1018.81 1018.72 1018.48 1019.18 1020.19 1020.34 1021.94 1023.35 1024.39 1024.80 1022.32 1020.54 1020.11 1015.22 1015.02 1014.73 1014.28 1014.47 1014.64 1014.74 1014.97 1015.91 1016.73 1017.33 1017.54 1017.63 1018.18 1018.73 1019.18 1019.75 1019.93 1020.03 1020.51 1020.94 1021.25 1021.67 1022.19 1022.90 1024.03 1025.02 1026.06 1026.45 1027.22
1017.72 1019.15 1018.61 1018.16 1018.05 1019.28 1020.30 1020.97 1022.00 1023.22 1024.08 1022.71 1021.46 1018.73 1014.47 1013.54 1013.21 1013.77 1013.96 1014.34 1014.44 1015.02 1015.36 1015.77 1016.18 1016.46 1017.15 1017.50 1018.29 1018.72 1019.12 1019.69 1019.74 1019.89 1020.12 1020.71 1021.22 1021.76 1022.37 1023.28 1024.24 1025.34 1025.93 1026.66
1016.80 1017.95 1017.91 1017.89 1017.77 1018.49 1020.29 1020.82 1021.22 1022.64 1023.86 1023.01 1020.18 1017.65 1015.10 1013.80 1013.44 1013.72 1013.59 1014.16 1014.17 1014.39 1014.96 1015.30 1015.67 1016.34 1016.97 1017.41 1018.06 1018.48 1018.97 1019.44 1019.68 1019.62 1019.95 1020.30 1020.84 1021.48 1022.16 1022.96 1023.89 1024.88 1025.91 1026.45
1015.54 1017.44 1018.14 1018.39 1018.18 1018.78 1018.60 1019.85 1021.01 1022.23 1022.93 1022.35 1019.54 1018.05 1015.43 1014.34 1013.70 1013.17 1013.11 1013.35 1013.63 1014.02 1014.87 1015.61 1016.25 1016.48 1017.09 1017.70 1017.98 1018.38 1018.65 1018.97 1019.31 1019.60 1019.83 1020.21 1020.71 1021.23 1021.92 1022.89 1023.79 1024.62 1025.86 1026.45
1015.21 1015.85 1018.71 1018.44 1017.84 1018.09 1019.58 1019.76 1021.09 1021.54 1021.75 1020.97 1019.89 1016.89 1014.35 1013.36 1012.76 1012.67 1012.71 1013.08 1013.56 1014.30 1014.93 1015.49 1016.28 1016.83 1017.24 1017.68 1018.20 1018.53 1018.75 1018.81 1019.19 1019.50 1019.88 1020.25 1020.97 1021.46 1021.97 1022.59 1023.74 1024.45 1025.29 1026.00
1014.72 1016.05 1018.10 1018.02 1017.76 1017.72 1018.24 1018.37 1019.07 1019.86 1020.66 1020.16 1019.34 1015.64 1013.53 1012.83 1012.78 1012.67 1013.25 1013.57 1013.92 1014.24 1014.81 1015.24 1015.85 1015.93 1016.88 1017.70 1018.16 1018.86 1019.26 1019.16 1019.27 1019.61 1020.08 1020.40 1020.94 1021.87 1022.14 1023.01 1023.77 1024.84 1025.18 1025.92
1014.22 1015.66 1017.65 1018.63 1018.48 1018.16 1017.75 1018.20 1018.65 1019.04 1019.70 1019.41 1019.29 1014.21 1013.01 1012.97 1012.93 1013.15 1013.48 1013.36 1013.75 1014.24 1014.96 1015.36 1015.90 1016.53 1016.69 1017.06 1017.95 1018.44 1019.18 1019.38 1019.56 1019.83 1020.20 1020.78 1021.36 1021.90 1022.61 1022.96 1023.84 1024.82 1025.39 1026.24
1013.13 1014.54 1014.96 1015.54 1015.64 1016.23 1017.34 1017.35 1017.96 1018.73 1019.26 1017.44 1016.76 1012.45 1013.06 1012.94 1013.03 1013.02 1013.19 1013.49 1013.86 1014.30 1014.91 1015.50 1015.89 1016.57 1017.24 1017.49 1017.70 1018.39 1019.03 1019.32 1019.70 1019.98 1020.31 1020.86 1021.28 1022.15 1023.02 1023.31 1024.27 1024.52 1025.46 1026.36
1013.34 1014.04 1014.84 1015.41 1015.53 1015.71 1015.75 1016.27 1017.07 1017.45 1016.07 1017.25 1012.89 1014.08 1013.08 1013.13 1012.84 1012.21 1012.73 1013.32 1013.77 1014.14 1014.32 1014.70 1015.32 1015.84 1016.47 1017.16 1017.62 1018.26 1018.95 1019.36 1019.50 1020.14 1020.56 1020.88 1021.52 1022.38 1022.91 1023.88 1024.68 1024.75 1025.62 1026.51
1013.57 1014.37 1015.12 1016.21 1016.01 1015.98 1015.92 1015.40 1015.11 1015.07 1015.42 1015.22 1013.56 1012.77 1012.22 1012.28 1012.53 1012.74 1012.24 1012.37 1012.81 1013.38 1013.40 1014.30 1014.61 1015.09 1015.75 1016.39 1017.17 1017.94 1018.39 1019.14 1019.80 1019.89 1020.63 1021.12 1022.01 1022.68 1022.98 1023.96 1024.73 1025.06 1025.99 1026.71
1012.82 1013.93 1015.78 1017.36 1017.08 1016.65 1016.28 1013.89 1014.26 1013.76 1013.78 1013.05 1013.22 1009.31 1011.17 1011.87 1011.94 1011.55 1011.74 1011.83 1011.68 1011.69 1012.25 1012.82 1013.20 1013.79 1014.10 1014.82 1015.82 1016.94 1017.81 1018.63 1019.35 1019.49 1020.27 1020.96 1021.78 1022.48 1022.91 1023.86 1024.74 1025.51 1026.16 1026.75
1012.22 1014.21 1015.87 1017.77 1017.55 1016.47 1012.51 1011.86 1011.62 1011.74 1011.69 1011.88 1011.19 1010.36 1011.04 1011.23 1011.12 1011.26 1010.92 1010.88 1010.77 1011.01 1011.45 1011.62 1012.04 1012.41 1012.92 1013.80 1014.89 1016.05 1017.12 1017.99 1018.64 1019.50 1020.37 1020.84 1021.31 1022.01 1022.74 1023.64 1024.66 1025.71 1026.12 1026.58
1012.56 1014.19 1016.35 1017.47 1017.62 1014.85 1012.30 1012.34 1011.88 1011.75 1010.69 1010.99 1010.81 1010.72 1010.83 1011.31 1011.52 1010.40 1010.03 1010.08 1009.89 1009.95 1010.07 1010.74 1011.25 1011.88 1012.78 1013.74 1014.62 1015.70 1016.77 1017.59 1018.41 1019.03 1019.67 1020.47 1021.01 1021.76 1022.62 1023.58 1024.60 1025.52 1025.94 1026.52
1013.26 1013.55 1015.06 1016.73 1016.48 1014.22 1012.00 1010.52 1010.45 1010.84 1009.43 1010.14 1010.11 1010.15 1010.24 1011.28 1011.67 1009.75 1010.01 1009.90 1010.22 1010.19 1010.22 1010.85 1011.42 1012.00 1012.61 1013.21 1014.12 1015.14 1015.96 1016.83 1017.40 1017.83 1018.65 1019.60 1020.33 1021.13 1022.10 1023.19 1024.30 1025.06 1025.67 1026.25
1014.33 1014.74 1014.87 1015.99 1014.96 1012.99 1011.37 1010.77 1011.02 1011.54 1011.02 1010.37 1010.13 1010.11 1010.66 1011.37 1011.03 1011.00 1010.82 1010.82 1011.21 1010.92 1010.97 1011.20 1011.50 1011.78 1012.08 1012.95 1013.72 1014.51 1015.32 1015.62 1016.10 1017.37 1018.48 1019.38 1020.11 1020.98 1022.03 1023.12 1024.09 1024.88 1025.53 1026.36
1013.07 1014.04 1014.70 1014.89 1013.99 1012.62 1011.26 1011.61 1011.11 1010.45 1010.64 1010.65 1010.91 1011.01 1011.31 1011.70 1011.86 1012.09 1011.92 1011.94 1011.82 1011.66 1012.07 1012.40 1012.42 1012.42 1012.62 1013.08 1013.62 1014.27 1014.77 1015.59 1016.40 1017.28 1018.21 1019.15 1020.04 1020.99 1021.93 1022.85 1023.88 1024.63 1025.20 1026.00
1012.09 1011.21 1012.04 1012.46 1011.86 1011.00 1010.89 1010.69 1010.79 1010.71 1011.08 1011.47 1011.86 1012.09 1012.25 1012.30 1012.43 1012.64 1012.62 1012.89 1012.96 1012.98 1013.28 1013.33 1013.25 1013.18 1013.19 1013.37 1013.72 1014.35 1014.80 1015.56 1016.49 1017.37 1018.25 1019.09 1019.99 1020.77 1021.52 1022.36 1023.41 1024.32 1024.95 1025.56
1011.52 1010.87 1011.18 1011.60 1011.40 1011.07 1011.28 1011.49 1011.51 1011.53 1011.89 1012.30 1012.58 1012.93 1012.89 1013.26 1013.54 1013.73 1013.64 1013.84 1013.85 1014.00 1014.56 1014.67 1014.35 1014.29 1014.40 1014.35 1014.55 1014.72 1015.04 1015.54 1016.31 1017.13 1018.02 1018.80 1019.60 1020.55 1021.39 1022.05 1022.65 1023.32 1024.11 1024.81
1010.96 1010.80 1011.05 1011.48 1011.35 1011.57 1011.92 1011.95 1012.13 1012.35 1012.56 1012.92 1013.25 1013.59 1013.90 1013.89 1014.23 1014.55 1014.90 1015.06 1015.26 1015.21 1015.30 1015.55 1015.51 1015.32 1015.28 1015.16 1015.35 1015.44 1015.41 1015.62 1016.30 1017.03 1017.97 1018.78 1019.58 1020.40 1021.13 1021.72 1022.17 1022.67 1023.03 1023.12
1010.80 1010.17 1010.41 1010.42 1010.51 1011.08 1011.99 1012.35 1012.58 1013.09 1013.55 1013.70 1013.96 1014.44 1014.64 1014.73 1015.01 1015.39 1015.99 1016.46 1016.46 1016.32 1016.30 1016.30 1016.21 1016.07 1016.06 1015.83 1015.95 1016.09 1015.91 1015.95 1016.42 1017.24 1017.91 1018.38 1019.06 1019.81 1020.53 1021.23 1022.08 1022.53 1022.88 1023.08
Thickness
5592 5596 5612 5612 5620 5628 5625 5617 5622 5627 5634 5630 5628 5639 5656 5653 5655 5665 5672 5675 5674 5678 5678 5680 5682 5684 5684 5681 5679 5678 5675 5676 5672 5667 5666 5664 5664 5663 5663 5662 5660 5658 5657 5655
5580 5589 5605 5609 5613 5611 5615 5615 5611 5620 5623 5624 5626 5633 5650 5647 5655 5666 5675 5670 5673 5672 5672 5679 5682 5683 5684 5685 5680 5677 5676 5676 5674 5669 5668 5669 5668 5663 5661 5661 5658 5657 5655 5650
5582 5594 5597 5604 5600 5603 5600 5611 5610 5612 5614 5616 5619 5627 5641 5649 5649 5660 5667 5675 5670 5677 5678 5677 5678 5686 5684 5685 5684 5679 5677 5677 5675 5672 5667 5665 5665 5662 5659 5657 5656 5653 5651 5648
5578 5590 5592 5591 5594 5601 5592 5598 5601 5602 5604 5592 5610 5607 5642 5646 5653 5658 5670 5666 5675 5676 5675 5682 5683 5683 5687 5688 5683 5683 5681 5677 5677 5673 5668 5665 5665 5664 5663 5660 5654 5650 5647 5643
5574 5577 5582 5584 5591 5590 5585 5592 5586 5589 5586 5587 5596 5594 5643 5643 5650 5660 5666 5673 5677 5681 5683 5685 5688 5687 5684 5684 5682 5681 5680 5679 5677 5675 5673 5669 5663 5662 5658 5653 5647 5642 5639 5636
5559 5565 5577 5583 5582 5585 5573 5572 5567 5564 5570 5567 5599 5603 5620 5659 5664 5665 5663 5674 5686 5684 5683 5679 5681 5678 5680 5679 5679 5675 5675 5677 5674 5672 5671 5669 5665 5659 5651 5646 5640 5635 5630 5626
5550 5556 5566 5575 5567 5563 5567 5556 5549 5547 5539 5569 5576 5591 5653 5659 5662 5676 5678 5679 5684 5686 5678 5675 5675 5677 5683 5681 5677 5674 5670 5673 5674 5670 5667 5667 5666 5661 5656 5646 5637 5628 5625 5617
5555 5549 5557 5565 5571 5559 5560 5561 5551 5543 5542 5564 5560 5600 5645 5660 5674 5668 5670 5670 5674 5675 5674 5676 5681 5684 5680 5680 5675 5673 5670 5666 5668 5667 5667 5662 5660 5657 5653 5645 5636 5627 5622 5614
5554 5553 5552 5561 5568 5566 5547 5542 5556 5544 5469 5525 5573 5605 5640 5647 5660 5658 5663 5661 5666 5671 5670 5676 5677 5673 5671 5671 5668 5666 5662 5659 5659 5661 5659 5658 5654 5651 5646 5639 5631 5622 5613 5608
5549 5540 5540 5544 5552 5547 5560 5561 5545 5530 5536 5534 5572 5581 5619 5644 5647 5661 5664 5662 5665 5662 5658 5657 5657 5659 5657 5656 5657 5656 5656 5656 5654 5654 5652 5649 5646 5643 5638 5630 5623 5615 5604 5598
5541 5548 5519 5530 5544 5547 5539 5541 5527 5538 5533 5542 5535 5589 5614 5640 5650 5653 5660 5659 5656 5651 5647 5645 5643 5642 5642 5642 5642 5643 5645 5647 5645 5644 5642 5639 5633 5630 5626 5623 5613 5606 5599 5592
5543 5526 5507 5531 5538 5544 5543 5545 5545 5549 5538 5539 5538 5580 5620 5628 5633 5639 5640 5640 5640 5638 5635 5635 5634 5637 5634 5631 5630 5627 5627 5632 5634 5631 5629 5628 5625 5617 5616 5609 5602 5592 5589 5582
5535 5516 5487 5517 5530 5528 5540 5540 5545 5540 5524 5536 5535 5599 5616 5618 5620 5617 5618 5626 5627 5624 5618 5618 5620 5622 5626 5624 5619 5618 5615 5617 5619 5619 5617 5614 5610 5607 5601 5598 5590 5581 5576 5567
5545 5528 5536 5542 5549 5542 5530 5537 5537 5534 5519 5554 5556 5614 5605 5610 5610 5614 5614 5614 5613 5609 5606 5604 5608 5609 5606 5607 5610 5608 5604 5605 5605 5605 5605 5601 5599 5591 5584 5582 5575 5571 5563 5553
5534 5517 5534 5536 5540 5538 5540 5534 5525 5530 5556 5533 5602 5576 5597 5598 5600 5613 5604 5599 5594 5593 5595 5600 5600 5599 5598 5596 5597 5595 5592 5591 5594 5592 5590 5588 5583 5576 5572 5566 5559 5556 5549 5540
5519 5506 5523 5503 5522 5526 5528 5537 5544 5551 5549 5549 5573 5576 5593 5592 5585 5585 5598 5597 5596 5595 5600 5595 5595 5592 5589 5590 5588 5585 5584 5581 5578 5581 5577 5573 5567 5562 5560 5552 5545 5542 5534 5527
5524 5509 5490 5471 5479 5497 5491 5542 5536 5551 5551 5565 5554 5616 5583 5578 5577 5584 5587 5585 5598 5603 5600 5593 5593 5593 5595 5593 5589 5583 5577 5573 5570 5571 5565 5562 5556 5551 5547 5539 5534 5528 5521 5515
5532 5497 5471 5451 5465 5491 5562 5551 5560 5561 5564 5566 5576 5592 5576 5578 5574 5570 5578 5586 5590 5594 5586 5589 5592 5594 5593 5589 5584 5578 5571 5566 5563 5558 5552 5550 5548 5543 5536 5530 5522 5514 5509 5504
5510 5499 5462 5469 5428 5509 5548 5530 5535 5535 5562 5562 5564 5571 5568 5556 5556 5573 5579 5578 5589 5588 5592 5590 5589 5587 5582 5576 5573 5567 5561 5558 5554 5550 5546 5540 5537 5531 5525 5518 5510 5502 5499 5493
5500 5515 5495 5417 5464 5493 5540 5543 5540 5549 5567 5564 5560 5561 5558 5540 5543 5583 5571 5575 5575 5577 5579 5576 5573 5572 5571 5570 5565 5559 5555 5551 5549 5547 5540 5533 5529 5524 5517 5508 5499 5493 5487 5481
5453 5463 5507 5435 5484 5488 5521 5528 5536 5519 5550 5529 5555 5554 5544 5540 5554 5551 5549 5556 5553 5556 5559 5564 5561 5564 5565 5559 5553 5551 5547 5548 5546 5535 5528 5522 5517 5510 5502 5494 5486 5479 5473 5465
5482 5475 5453 5429 5444 5509 5507 5518 5538 5545 5537 5539 5541 5539 5537 5533 5534 5529 5530 5531 5537 5539 5540 5542 5546 5547 5547 5543 5543 5542 5540 5534 5527 5521 5515 5508 5502 5495 5487 5481 5473 5466 5460 5451
5493 5496 5488 5506 5504 5515 5507 5515 5516 5517 5520 5520 5521 5517 5520 5523 5516 5517 5517 5515 5518 5518 5518 5518 5522 5529 5530 5529 5530 5529 5525 5518 5511 5505 5500 5494 5487 5482 5477 5471 5461 5452 5446 5438
5469 5484 5487 5495 5495 5505 5494 5496 5500 5503 5503 5502 5503 5503 5503 5505 5500 5498 5498 5496 5499 5498 5497 5496 5502 5503 5505 5506 5508 5510 5508 5504 5499 5495 5488 5482 5476 5468 5462 5457 5450 5442 5433 5425
5474 5478 5466 5463 5484 5485 5482 5486 5485 5487 5487 5486 5485 5485 5484 5489 5485 5483 5479 5477 5477 5479 5480 5480 5483 5484 5485 5486 5487 5489 5490 5489 5486 5481 5472 5465 5460 5453 5446 5441 5436 5431 5425 5422
5463 5474 5480 5475 5481 5482 5474 5472 5475 5474 5469 5471 5475 5470 5466 5468 5468 5467 5460 5456 5458 5462 5462 5466 5467 5469 5467 5469 5469 5468 5471 5472 5469 5462 5456 5453 5447 5441 5435 5429 5420 5416 5410 5406